CAPE
898 768 535 710 886 1179 1439 1293 1425 1436 1834 1934 1940 2064 1847 1590 1468 1146 517 370 214 179 391 612 1168 1567 1672 1819 2124 1614 1682 2068 1905
1063 1010 985 1176 1307 1481 1496 1407 1476 1589 1913 2018 2111 2119 1954 1830 1861 1035 1238 971 458 336 920 979 1397 1447 1601 1800 1701 1587 1731 1595 1522
1347 1030 1123 1178 1458 1580 1816 1731 1552 1708 2088 2092 2144 2115 2003 1914 1610 1399 1624 1265 1128 1629 1595 1574 1379 1298 1287 1316 1345 1096 1220 1187 1085
1367 1153 1174 1176 1253 1502 1840 2003 2050 2201 2350 2642 2510 2325 2166 1993 1558 1827 1728 1301 1713 2011 1450 1491 1209 1144 1150 1071 1005 928 859 899 903
1414 1377 1227 1393 1809 2002 2254 2369 2535 2839 3044 2717 2278 2034 1856 1621 2154 1935 1760 1763 1613 1382 1281 1199 850 887 852 884 693 734 794 934 940
1416 1513 1310 1342 1787 2182 2504 2693 2872 2800 2648 2540 2285 2123 1952 1810 1765 1554 1408 1293 1224 1238 1183 941 802 796 819 785 715 552 484 343 345
1712 1858 1704 1541 2029 2258 2692 2664 2466 2288 2042 1832 1645 1294 1328 1417 1304 1051 1080 1093 902 790 803 694 580 484 435 316 214 206 181 114 27
1720 1990 2003 2066 2329 2170 2383 2451 2159 1767 1484 1321 1345 1463 1407 1321 1130 1016 804 768 767 641 597 517 388 220 174 57 4 2 10 8 4
1606 2070 2078 2100 2251 2467 2428 1976 1602 1364 1351 1396 1354 1302 1153 1033 922 782 577 388 297 276 310 318 155 46 4 0 0 0 0 0 0
1367 1989 2095 2198 2335 2490 2185 1677 1344 1289 1328 1326 1399 1278 1113 1013 956 804 431 130 38 4 2 0 0 0 0 0 0 0 0 0 0
1321 1848 2205 2548 2573 2513 2180 1590 1217 1264 1328 1425 1369 1272 1220 962 628 331 60 2 1 0 0 0 0 0 0 0 0 0 0 0 0
1314 1831 2339 2750 2718 2538 2162 1695 1451 1439 1341 1165 1313 1232 962 720 495 227 6 1 0 0 0 0 0 0 0 0 0 0 0 0 1
1193 1853 2446 2743 2680 2525 1993 1767 1518 1436 1102 1077 1035 808 652 418 199 34 9 0 0 0 0 0 0 0 0 0 0 0 0 0 3
1355 2014 2627 2703 2554 2285 1833 1617 1474 1608 1354 1062 997 832 507 273 57 8 0 0 0 0 0 0 0 0 0 0 0 0 0 0 0
1557 2131 2702 2531 2292 2005 1732 1661 1639 1672 1554 1188 786 532 292 20 3 0 0 0 0 0 0 0 3 9 7 3 0 0 0 0 0
2172 2428 2621 2436 2317 2164 1933 1862 1886 1514 1018 601 375 168 7 2 0 0 0 0 0 7 0 2 8 4 0 0 2 0 0 0 0
2444 2740 2711 2622 2542 2321 2083 2256 1968 874 530 333 84 0 0 0 0 0 0 0 0 0 0 0 0 0 0 0 0 0 0 0 0
2180 2807 2838 2774 2409 1756 1838 1399 414 167 87 27 61 0 0 0 0 0 0 0 0 0 0 0 0 0 0 0 0 0 0 0 0
2191 2149 2161 1825 928 637 250 338 223 38 6 6 0 0 0 0 0 0 0 0 0 0 0 0 0 0 0 0 0 0 0 0 0
879 1102 766 426 443 412 11 2 4 5 1 0 0 0 0 0 0 0 0 0 0 0 0 0 0 0 0 0 0 0 0 0 0
CIN
-89 -98 -75 -61 -59 -36 -49 -61 -78 -99 -148 -173 -200 -188 -190 -153 -90 -53 -112 -131 -168 -138 -45 -57 -51 -21 -16 -8 -0 -0 -0 -0 -0
-67 -88 -123 -124 -97 -85 -97 -79 -87 -130 -150 -159 -170 -150 -143 -81 -25 -91 -46 -59 -145 -145 -41 -25 -8 -0 -0 -0 -0 -0 -0 -0 -0
-62 -125 -123 -117 -104 -96 -68 -63 -81 -90 -98 -107 -136 -105 -80 -43 -44 -40 -13 -37 -36 -4 -3 -1 -1 -0 -0 -0 -0 -1 -0 -0 -0
-67 -86 -105 -127 -129 -113 -77 -76 -97 -89 -74 -65 -66 -56 -36 -39 -54 -12 -11 -32 -4 -0 -6 -3 -6 -6 -3 -5 -7 -6 -2 -0 -0
-80 -98 -136 -111 -106 -97 -85 -88 -97 -52 -37 -63 -81 -79 -70 -78 -17 -21 -19 -19 -28 -27 -20 -16 -32 -21 -15 -7 -11 -4 -0 -0 -0
-126 -146 -168 -133 -120 -111 -70 -47 -34 -32 -34 -34 -51 -44 -43 -49 -54 -58 -51 -38 -27 -18 -18 -23 -24 -18 -10 -7 -2 -3 -1 -5 -3
-139 -164 -169 -144 -118 -117 -53 -54 -61 -52 -58 -77 -77 -79 -85 -93 -100 -100 -60 -49 -47 -42 -37 -33 -28 -23 -14 -30 -64 -56 -56 -82 -70
-156 -153 -136 -143 -113 -122 -76 -48 -54 -85 -112 -116 -87 -71 -70 -79 -83 -70 -80 -57 -42 -44 -37 -25 -16 -38 -76 -185 -0 -0 -0 -0 -0
-172 -142 -145 -159 -145 -76 -48 -84 -122 -146 -132 -99 -68 -63 -90 -111 -95 -78 -76 -77 -76 -50 -38 -27 -59 -175 -0 -0 -0 -0 -0 -0 -0
-158 -149 -142 -147 -122 -74 -69 -127 -167 -156 -120 -94 -67 -84 -97 -82 -45 -31 -53 -91 -85 -0 -0 -0 -0 -0 -0 -0 -0 -0 -0 -0 -0
-169 -166 -148 -93 -67 -50 -62 -108 -138 -111 -96 -65 -51 -53 -52 -54 -66 -91 -134 -0 -0 -0 -0 -0 -0 -0 -0 -0 -0 -0 -0 -0 -0
-141 -157 -130 -80 -44 -38 -54 -84 -105 -98 -94 -95 -73 -61 -73 -74 -68 -76 -16 -0 -0 -0 -0 -0 -0 -0 -0 -0 -0 -0 -0 -0 -0
-133 -167 -95 -56 -41 -32 -56 -67 -91 -94 -113 -109 -96 -99 -99 -103 -112 -98 -0 -0 -0 -0 -0 -0 -0 -0 -0 -0 -0 -0 -0 -0 -0
-138 -141 -90 -63 -58 -71 -98 -88 -86 -52 -62 -80 -76 -81 -93 -93 -73 -0 -0 -0 -0 -0 -0 -0 -0 -0 -0 -0 -0 -0 -0 -0 -0
-145 -134 -89 -83 -80 -75 -76 -49 -42 -29 -27 -43 -73 -94 -90 -69 -0 -0 -0 -0 -0 -0 -0 -0 -0 -0 -0 -0 -0 -0 -0 -0 -0
-101 -63 -60 -34 -26 -32 -33 -18 -9 -23 -62 -96 -122 -155 -12 -0 -0 -0 -0 -0 -0 -0 -0 -0 -0 -0 -0 -0 -0 -0 -0 -0 -0
-46 -7 -8 -4 -5 -12 -18 -4 -6 -127 -174 -161 -192 -0 -0 -0 -0 -0 -0 -0 -0 -0 -0 -0 -0 -0 -0 -0 -0 -0 -0 -0 -0
-43 -7 -1 -2 -32 -91 -51 -87 -226 -269 -324 -334 -233 -0 -0 -0 -0 -0 -0 -0 -0 -0 -0 -0 -0 -0 -0 -0 -0 -0 -0 -0 -0
-43 -79 -69 -104 -190 -250 -306 -99 -152 -322 -99 -381 -0 -0 -0 -0 -0 -0 -0 -0 -0 -0 -0 -0 -0 -0 -0 -0 -0 -0 -0 -0 -0
-357 -250 -290 -329 -317 -204 -300 -13 -0 -8 -244 -0 -0 -0 -0 -0 -0 -0 -0 -0 -0 -0 -0 -0 -0 -0 -0 -0 -0 -0 -0 -0 -0
Wind_Speed
4 6 8 12 11 11 9 12 14 14 15 15 16 16 13 10 7 2 1 2 1 1 3 3 6 7 7 5 5 6 5 3 4
6 7 8 8 9 9 11 13 13 13 15 15 14 13 11 8 6 1 1 4 2 2 2 2 4 5 6 5 4 3 1 2 4
11 11 11 11 10 11 10 12 13 13 13 12 12 10 8 6 5 4 2 5 4 4 3 1 4 4 4 4 4 4 3 2 3
13 14 12 12 11 11 11 10 10 12 12 12 9 7 6 4 2 5 5 5 4 5 4 5 4 4 5 5 5 4 4 4 3
13 13 12 12 13 12 10 10 10 10 10 9 7 6 4 4 6 6 7 7 6 4 5 6 4 4 4 5 5 4 4 5 6
12 14 15 13 13 11 10 11 12 11 11 11 11 10 10 10 10 9 8 6 6 6 5 4 4 5 5 5 5 4 5 5 5
14 14 15 14 12 11 13 13 13 12 12 12 12 11 10 10 10 8 8 7 6 6 5 5 5 5 5 5 5 5 5 5 6
15 16 17 16 15 14 14 14 13 12 12 12 12 11 10 10 9 8 7 6 5 5 4 5 4 4 4 2 2 5 4 5 5
16 17 18 18 19 18 17 16 15 14 13 13 12 12 12 11 9 8 7 6 5 4 4 4 4 4 5 5 6 7 8 5 5
19 18 19 20 21 20 18 18 17 16 15 14 13 12 12 11 10 8 7 6 5 4 4 4 4 4 4 5 6 5 5 6 5
20 19 20 21 20 19 18 17 16 16 15 14 13 12 12 11 9 8 7 5 4 4 4 3 4 4 4 4 6 3 2 4 2
18 19 19 19 19 20 19 18 17 16 15 14 13 13 11 10 8 7 7 6 5 4 4 4 5 4 4 4 6 2 3 6 5
18 18 18 19 21 20 19 19 19 18 16 15 13 12 11 9 8 7 7 6 5 4 4 4 2 4 4 2 4 5 1 6 8
14 17 20 21 21 19 20 19 19 18 16 14 13 13 11 10 9 8 7 6 6 5 4 4 2 2 3 3 1 4 4 1 8
13 18 20 21 19 18 18 19 17 16 12 12 12 12 11 10 9 7 8 7 6 4 4 4 4 5 6 5 1 3 5 1 4
13 15 17 18 17 19 18 18 16 15 13 14 13 12 10 10 9 7 7 7 6 6 5 4 4 3 3 2 1 2 9 6 6
12 14 16 16 18 18 18 15 13 17 16 15 12 11 9 9 8 7 6 6 5 3 3 2 1 2 3 4 3 2 4 5 8
10 13 14 15 15 11 13 15 17 17 17 14 13 11 9 8 7 7 6 1 1 2 4 5 4 4 4 5 4 7 5 6 8
7 8 8 9 12 14 12 10 15 15 10 11 14 11 8 7 7 7 6 7 6 4 7 3 2 2 4 1 3 2 6 8 9
8 9 10 12 14 15 14 14 6 9 13 14 12 9 8 7 5 6 5 4 4 6 6 9 10 8 7 7 11 7 10 12 11
Wind_Direction
147 179 178 194 188 190 180 175 180 179 182 187 190 195 201 208 210 226 323 302 186 177 260 337 350 336 323 295 276 267 267 292 274
154 137 139 152 161 151 158 167 176 176 181 187 191 188 200 201 194 114 56 119 126 148 153 32 27 17 15 23 23 5 354 32 357
133 135 141 145 140 145 148 146 161 166 173 176 188 190 195 190 175 192 158 132 58 8 340 36 36 41 55 63 42 48 28 59 43
146 143 141 141 140 139 132 132 142 146 161 162 170 179 192 170 163 179 136 95 73 77 76 67 64 52 47 47 63 62 64 70 28
144 142 144 144 136 131 132 135 134 131 135 139 155 171 169 173 159 122 118 115 103 95 103 89 83 68 70 69 54 56 64 55 58
150 151 154 153 145 141 146 142 134 135 133 136 141 158 151 135 126 121 113 114 107 109 101 81 92 92 71 58 62 66 67 66 54
156 158 161 165 159 154 147 138 141 142 145 143 145 148 139 125 112 124 132 120 121 118 114 112 95 81 79 76 67 57 49 54 52
165 162 163 160 152 159 153 151 148 149 147 146 147 140 131 120 118 116 116 111 108 108 122 96 119 120 98 91 65 38 39 56 50
181 171 166 161 154 162 160 156 157 156 154 149 147 144 136 133 134 131 121 124 116 113 105 113 101 72 70 43 60 45 34 35 78
189 178 169 163 166 166 164 162 160 159 154 153 154 147 141 141 142 142 135 123 136 131 108 108 87 74 72 77 93 74 55 342 73
192 180 169 166 165 165 163 162 161 151 155 156 153 152 149 147 146 131 127 135 135 136 136 124 96 96 95 109 102 119 93 315 327
189 180 171 169 164 160 161 161 156 154 157 159 160 158 154 151 150 148 147 159 156 162 159 140 141 146 136 130 120 91 250 286 303
177 173 169 166 160 155 159 158 157 159 164 165 164 159 156 154 154 161 161 157 171 145 141 131 144 190 166 90 126 98 320 244 290
172 166 162 159 157 159 160 159 160 163 163 168 159 156 151 154 152 150 155 156 150 155 176 114 148 189 165 190 115 95 81 312 283
171 163 158 160 158 156 156 161 163 159 158 147 142 145 146 144 155 164 149 148 157 170 150 163 199 228 235 178 238 75 136 111 341
168 166 162 163 154 152 158 162 158 150 129 142 146 140 144 153 157 145 148 160 171 186 184 270 237 254 291 314 110 200 155 205 241
168 164 175 161 152 158 156 151 148 136 145 145 140 140 152 156 156 158 175 182 184 201 184 184 241 301 333 360 319 306 318 264 211
176 168 170 155 159 147 140 129 128 145 148 150 131 152 162 164 148 188 155 80 37 124 49 6 345 19 346 340 346 44 350 315 317
158 121 154 130 129 133 127 133 144 147 148 131 137 152 168 166 153 169 175 163 160 59 74 135 102 71 346 16 229 249 285 279 277
136 143 122 127 131 130 114 116 118 155 147 134 150 149 143 155 189 171 169 190 204 173 184 205 192 199 232 239 288 278 272 273 263